Weather in Mikhaylovka

Russia / Omsk Oblast     56°50′29″N   75°08′45″E
temp.,
°C
wind,
m/s
gust,
m/s
humid.,
%
clouds,
%
prec.,
mm/h
press.,
hPa
HPBL,
m
15 april, thu
thu1500:00+4w11100100 0.2 102623
03:00+4sw12100100 0.0 102571
06:00+4ssw2699100 0.0 1024157
09:00+6sw3998100 0.0 1023308
12:00+9w488946 0.0 1021436
15:00+14w47705 0.0 1020837
18:00+14wsw410790 0.0 1019781
21:00+10wsw414905 0.0 1017351
16 april, fri
fri1600:00+10wsw415895 0.0 1016419
03:00+8wsw412935 0.1 1014314
06:00+7wsw4129414 0.1 1013287
09:00+10wnw4989100 0.0 1013702
12:00+4n5991100 0.1 1018691
15:00+6n5863100 0.1 10201594
18:00+5n5857100 0.2 10231585
21:000nne49660 0.0 1026489
17 april, sat
sat1700:00−2ne37725 0.0 1027543
03:00−3ene25725 0.0 1026525
06:00−4se147211 0.0 1025347
09:00−1s235471 0.0 1024752
12:00+2wsw3540100 0.0 10211279
15:00+5w5845100 0.0 10181840
18:00+5wnw51064100 0.1 10171484
21:000nnw247392 0.1 101870
18 april, sun
sun1800:00−1n1169100 0.1 101923
03:00−1se2475100 0.0 1017109
06:00−1sse3875100 0.0 1015305
09:00+1sse4971100 0.1 1011609
12:00+2ssw51295100 1.8 1006638
15:00+3wsw61191100 1.8 10041111
18:00+4w613584 2.2 10021875
21:00−2wsw51091100 0.0 1001694
19 april, mon
mon1900:00−6nnw81590100 1.7 10061178
03:00−9nnw71583100 0.3 1010950
06:00−10nnw71477100 0.4 1013853
09:00−9nnw61066100 0.0 1015976
12:00−5nnw71055100 0.0 10171468
15:00−4nnw61058100 0.1 10191698
18:00−3nnw61055100 0.1 10211772
21:00−6nnw5106589 0.0 10231144